Location: Arpaia
(41.0333°N, 14.5500°E)
Time: 13:18:13
(UTC+00:00)

Daily predictions for brighter satellites

Satellite Brightness Start Highest point End
(mag) Time Altitude Azimuth Time Altitude Azimuth Time Altitude Azimuth
CSL-04 Rocket 4.2 18:37:54 10° S 18:43:09 62° WSW 18:48:31 10° NNW
Cosmos 1271 Rocket 4.2 18:42:54 10° SE 18:45:50 20° E 18:48:46 10° NE
BREEZE-M DEB (TANK) 4.0 18:46:04 10° W 18:47:47 18° SW 18:50:05 10° SSE
COSMOS 2406 3.3 18:42:18 10° NNW 18:47:57 64° ENE 18:53:35 10° SE
Cosmos 1745 Rocket 4.4 18:45:04 10° NNW 18:51:10 67° W 18:57:13 10° S
Cosmos 1709 Rocket 4.0 18:46:31 10° N 18:52:39 73° E 18:58:46 10° SSE
USA 267 3.3 18:46:55 10° SE 18:53:29 88° SW 19:00:03 10° NW
Delta 2 Rocket 4.4 18:50:21 10° WSW 18:55:36 46° S 19:00:23 10° ESE
Cosmos 1666 4.0 18:54:26 10° NNE 18:57:29 23° ENE 19:00:26 10° SE
Meteor 1-26 Rocket 4.4 18:52:00 10° SSW 18:57:36 80° W 19:03:05 10° N
USA 186 2.4 18:56:11 10° S 18:58:23 36° W 19:00:32 10° NNW
Cosmos 1602 4.0 18:54:36 10° NNW 18:58:30 74° W 19:02:23 10° S
OAO 3 Rocket 3.7 18:54:20 10° WSW 18:58:38 38° S 19:02:57 10° ESE
USA 305 3.0 18:54:35 10° NW 18:58:52 80° SW 19:03:02 10° SE
CZ-2C R/B 2.6 19:03:17 10° SSW 19:06:23 21° SSE 19:08:47 13° ESE
Cosmos 1812 2.7 19:04:31 10° S 19:08:18 61° E 19:12:07 10° NNE
CZ-4C R/B 3.3 19:01:24 10° NW 19:08:53 72° WSW 19:17:22 10° SSE
Cosmos 1833 Rocket 2.8 19:03:13 10° NNW 19:08:54 86° WSW 19:14:31 10° SSE
Meteor 2-6 Rocket 4.3 19:05:28 10° S 19:10:47 58° E 19:16:16 10° NNE
OBJECT-B 1.7 19:07:47 10° S 19:10:55 48° W 19:14:06 10° NNW
Cosmos 1515 Rocket 3.5 19:10:40 10° S 19:15:00 68° E 19:19:22 10° NNE
USA 306 3.3 19:14:29 10° WNW 19:18:38 55° SW 19:22:06 14° SSE
Cosmos 1633 Rocket 3.8 19:14:55 10° NNW 19:19:14 55° W 19:23:32 10° S
ISS -2.3 19:17:31 10° WSW 19:20:43 41° NNW 19:23:56 10° NE
Cosmos 1328 Rocket 4.4 19:19:21 10° SSW 19:23:39 52° W 19:27:57 10° N
Cosmos 44 4.2 19:22:53 10° NNW 19:28:01 41° NE 19:31:42 17° ESE
Cosmos 2228 Rocket 3.7 19:24:37 14° SSE 19:28:04 38° E 19:32:13 10° NNE
Cosmos 1500 3.6 19:24:56 10° NNW 19:28:38 61° W 19:32:18 10° S
SPOT 1/Viking Rocket 4.3 19:25:15 16° SE 19:28:51 36° ENE 19:33:34 10° N
Cosmos 1538 Rocket 4.2 19:24:53 10° NNW 19:30:13 73° WSW 19:35:15 11° S
MetOp-B 4.5 19:29:25 16° SE 19:33:28 51° ENE 19:38:38 10° N
Meteor 1-27 Rocket 4.2 19:28:19 11° SSE 19:33:33 44° E 19:39:08 10° NNE
Resurs 01 Rocket 1.6 19:30:44 15° SSE 19:34:23 73° ENE 19:38:49 10° N
IGS 5A 3.4 19:34:48 18° SSE 19:37:50 70° ENE 19:41:59 10° N
Cosmos 1470 Rocket 4.1 19:34:16 10° NNW 19:38:42 61° W 19:43:05 10° S
DNEPR-1 R/B 4.2 19:35:19 10° SSW 19:41:33 63° ESE 19:46:41 10° NE
Cosmos 1680 Rocket 3.9 19:38:22 10° N 19:43:32 49° ENE 19:46:39 23° SE
SPOT 3 Rocket 3.5 19:41:45 17° SSE 19:45:49 84° ENE 19:51:00 10° NNW
Meteor 1-5 Rocket 4.3 19:40:35 10° NNW 19:45:53 72° W 19:50:46 12° S
USA 307 4.1 19:44:21 10° WNW 19:48:10 33° SW 19:50:36 18° S
SJ 16-02 3.0 19:44:21 10° SW 19:48:26 36° WNW 19:52:34 10° N
Cosmos 2297 3.7 19:43:13 10° S 19:48:49 63° ESE 19:54:26 10° NNE
NOSS 3-4 (A) 4.0 19:43:17 10° NW 19:50:26 76° WSW 19:56:19 19° SSE
Iridium 4 Rocket 3.8 19:45:06 13° S 19:50:26 73° E 19:56:19 10° N
NOSS 3-4 (C) 4.0 19:43:24 10° NW 19:50:32 76° WSW 19:56:24 20° SSE
Cosmos 1933 Rocket 3.8 19:47:55 10° NNW 19:52:14 67° W 19:55:39 16° S
Tianhe-1 1.0 19:51:38 10° W 19:54:46 80° N 19:56:10 30° E
Ariane Rocket 4.2 19:50:44 10° SSW 19:55:27 39° W 20:00:13 10° NNW
Cosmos 1943 Rocket 2.2 19:54:00 10° S 19:59:30 57° ESE 20:04:59 10° NNE
Terra 3.3 19:59:45 20° E 20:01:22 23° ENE 20:05:06 10° NNE
Cosmos 990 Rocket 4.1 19:57:52 10° SSW 20:03:05 79° WNW 20:08:22 10° NNE
ATLAS 2AS CENTAUR R/B 2.7 19:56:25 10° NNW 20:03:45 80° NE 20:07:46 27° SE
Cosmos 2082 Rocket 2.5 19:58:35 10° NNW 20:04:07 60° WSW 20:07:52 21° S
Cosmos 158 Rocket 4.4 19:59:49 10° NNW 20:04:38 55° WSW 20:07:55 20° S
Cosmos 1733 Rocket 4.4 20:03:57 10° NNE 20:07:25 23° ENE 20:08:05 22° E
Cosmos 1544 3.4 20:05:21 10° N 20:08:51 44° E 20:09:21 41° ESE
Meteor 1-11 Rocket 3.8 20:04:16 10° N 20:10:13 86° W 20:13:54 24° S
Cosmos 1340 Rocket 3.1 20:07:44 10° N 20:11:42 49° ENE 20:12:35 41° ESE
Cosmos 1898 Rocket 3.6 20:07:10 10° SSW 20:12:29 82° WNW 20:17:51 10° NNE
Okean 1 4.4 20:13:39 28° E 20:13:39 28° E 20:16:54 10° NNE
CZ-2C R/B 4.2 20:13:40 10° N 20:18:09 60° WNW 20:22:38 10° SSW
USA 245 3.1 20:18:58 45° NNW 20:18:58 45° NNW 20:20:49 10° NNW
Cosmos 2327 Rocket 4.5 20:13:42 10° N 20:20:10 84° E 20:23:46 28° S
ARIANE 5 R/B 2.5 20:18:52 43° SSE 20:20:13 73° ENE 20:24:34 10° N
Cosmos 923 Rocket 4.5 20:17:18 10° NNW 20:22:29 57° WSW 20:25:17 27° S
Cosmos 1461 3.6 20:21:48 10° SW 20:26:28 63° NW 20:31:05 10° NNE
Cosmos 2369 Rocket 2.3 20:26:36 36° SSE 20:28:29 52° ESE 20:33:57 10° NNE
Milstar 3 4.2 20:13:47 10° WSW 20:29:09 44° SSW 20:33:40 30° SE
SL-24 DEB 4.3 20:28:12 46° SE 20:29:15 59° E 20:33:48 10° N
H-2A R/B 4.1 20:25:57 10° NNE 20:29:32 37° E 20:29:32 37° E
ATLAS CENTAUR R/B 2.8 20:36:26 22° ENE 20:36:26 22° ENE 20:38:00 10° NE
Cosmos 1818 3.5 20:29:19 10° NNW 20:34:49 88° ENE 20:36:36 45° SE
SL-24 R/B - RUBIN 2 4.1 20:31:50 10° NW 20:36:58 57° WSW 20:38:18 41° S
Cosmos 1536 3.4 20:35:08 10° NNW 20:39:02 50° W 20:40:06 38° SW
ERBS 2.5 20:37:27 10° NW 20:40:21 66° NW 20:40:21 66° NW
SPOT 5 3.0 20:39:52 46° SSE 20:41:28 82° ENE 20:46:50 10° N
OAO 3 Rocket 4.0 20:37:27 10° WSW 20:40:54 32° SSW 20:40:54 32° SSW
Cosmos 1238 Rocket 3.5 20:38:21 10° N 20:43:42 54° ENE 20:44:23 49° ESE
CZ-2C R/B 3.2 20:42:00 10° WSW 20:43:05 16° SW 20:43:05 16° SW
Cosmos 2154 Rocket 4.4 20:41:08 10° NNW 20:47:17 58° W 20:50:44 26° SSW
Cosmos 962 Rocket 4.4 20:42:28 10° N 20:48:37 85° E 20:50:49 43° SSE
Meteor 2-9 Rocket 4.4 20:44:19 10° N 20:49:54 55° ENE 20:51:03 46° ESE
ERS-1 Rocket 2.9 20:49:06 51° S 20:50:24 81° WSW 20:55:28 10° NNW
Cosmos 1862 Rocket 3.4 20:54:15 74° ESE 20:54:19 74° E 20:58:38 10° NNE
Meteor 1-18 Rocket 4.2 20:54:24 52° SSE 20:55:33 65° E 21:01:04 10° NNE
ISS -0.6 20:56:09 10° NW 20:58:13 15° N 21:00:17 10° NNE
Cosmos 1975 3.7 20:54:32 10° N 20:57:45 38° NE 20:57:45 38° NE
Cosmos 1607 3.9 20:54:28 25° SSW 20:58:27 80° ESE 21:04:58 10° NE
Spot 2 Rocket 4.4 21:00:39 30° SW 21:02:23 40° W 21:07:09 10° NNW
Lacrosse 5 3.1 21:09:47 28° ENE 21:09:47 28° ENE 21:12:24 10° NE
Cosmos 1743 3.7 21:07:20 10° NNW 21:10:57 38° W 21:11:02 38° W
Cosmos 2263 4.1 21:09:26 51° SSW 21:10:58 84° ESE 21:16:48 10° NNE
RESURS DK-1 3.0 21:10:17 10° NNW 21:13:58 49° NE 21:13:58 49° NE
Cosmos 2366 rocket 3.9 21:17:58 10° N 21:24:13 89° E 21:25:28 60° S
Cosmos 1867 4.2 21:23:54 19° SW 21:27:39 54° NW 21:33:01 10° NNE
Cosmos 2181 Rocket 4.1 21:25:49 44° SSW 21:27:46 68° W 21:33:52 10° N
Meteor 2-4 Rocket 3.5 21:28:24 72° SSE 21:28:57 81° E 21:34:32 10° NNE
Cosmos 1048 Rocket 4.0 21:24:09 10° NNW 21:29:24 66° ENE 21:29:35 65° E
Cosmos 44 Rocket 4.0 21:32:48 10° NNW 21:37:50 46° NE 21:38:15 45° ENE
Terra 2.8 21:38:38 37° WSW 21:38:53 37° W 21:43:18 10° NNW
SL-27 R/B 4.4 21:36:22 10° N 21:38:02 26° N 21:38:02 26° N
Cosmos 1833 4.1 21:35:16 10° NNW 21:41:04 79° ENE 21:41:31 73° ESE
Cosmos 1943 Rocket 4.4 21:39:17 10° WSW 21:43:37 22° NW 21:47:56 10° N
Cosmos 1656 Rocket 4.1 21:46:52 42° WSW 21:48:22 55° WNW 21:53:50 10° NNE
Gbstr 26 Del rocket 4.5 21:41:37 10° WNW 21:48:25 44° SW 21:48:29 44° SW
ALOS 2 4.0 21:51:57 30° NE 21:51:57 30° NE 21:55:11 10° N
ATLAS 2AS CENTAUR R/B 4.3 21:49:03 10° WNW 21:53:41 19° WSW 21:55:13 18° WSW
Cosmos 494 Rocket 4.0 21:56:04 10° NNW 22:00:49 76° NNW 22:00:49 76° NNW
Nadezhda 3 Rocket 3.8 22:06:38 78° S 22:07:04 87° E 22:13:17 10° N
Meteor 1-13 Rocket 4.1 22:10:25 84° N 22:10:25 84° N 22:15:46 10° N
Cosmos 2369 Rocket 4.1 22:08:17 10° WSW 22:12:48 24° NW 22:17:22 10° N
ATLAS CENTAUR R/B 3.7 22:12:29 16° WNW 22:13:32 17° NW 22:16:08 10° N
NOSS 2-1 (C) 4.5 22:08:56 10° NNW 22:14:04 67° NE 22:14:46 62° E
Okean 1-7 4.4 22:21:21 33° NW 22:21:21 33° NW 22:24:37 10° N
NOSS 2-1 (D) 4.4 22:15:47 10° NNW 22:20:57 75° NE 22:21:25 71° E
Spot 4 4.4 22:24:53 55° NW 22:24:53 55° NW 22:28:55 10° NNW
Sich 1 Rocket 4.5 22:19:57 10° N 22:23:17 46° NNE 22:23:17 46° NNE
Cosmos 2344 4.4 22:20:33 10° NW 22:30:17 90° NE 22:35:50 41° SSE
Okean 2 Rocket 4.2 22:28:25 10° N 22:31:30 40° NNE 22:31:30 40° NNE
Cosmos 2239 Rocket 4.5 22:29:12 10° NNW 22:35:30 72° W 22:35:47 70° WSW
ISS -0.7 22:33:55 10° NNW 22:36:03 16° N 22:36:27 15° NNE
Lacrosse 5 3.2 22:48:53 28° WNW 22:50:38 36° NW 22:55:20 10° NNE
Cosmos 1934 Rocket 3.9 22:49:18 10° N 22:55:20 73° W 22:55:20 73° W
Cosmos 1656 4.3 23:00:02 44° ENE 23:00:02 44° ENE 23:04:21 10° NE
Cosmos 2227 Rocket 3.4 23:00:54 10° N 23:06:03 35° ENE 23:07:26 31° E
Cosmos 1339 Rocket 4.5 23:06:12 73° WSW 23:06:32 74° W 23:12:54 10° N
SeaSat 1 3.7 23:02:25 10° NE 23:05:37 31° ENE 23:05:37 31° ENE
Cosmos 2297 Rocket 2.9 23:02:30 10° NNW 23:07:58 46° ENE 23:08:40 44° E
Meteor 2-10 4.4 23:05:00 10° N 23:09:41 59° NE 23:09:41 59° NE
Okean 1 Rocket 4.1 23:16:26 10° N 23:19:30 43° NNE 23:19:30 43° NNE
EO 1 Delta rocket 4.2 23:25:57 83° WNW 23:25:57 83° WNW 23:32:25 10° N
USA 215 4.5 23:20:59 10° E 23:26:55 39° NNE 23:32:52 10° NW
COSMOS 2455 2.7 23:22:52 10° NNW 23:28:41 80° WNW 23:28:41 80° WNW
Resurs 1-4 Rocket 3.9 23:27:42 10° NE 23:31:23 19° E 23:31:39 19° E
Cosmos 371 Rocket 3.7 23:36:48 59° NNE 23:36:48 59° NNE 23:40:48 10° NNE
Cosmos 1727 Rocket 3.9 23:36:38 78° SW 23:37:00 82° W 23:43:24 10° N
Cosmos 1470 4.4 23:34:22 10° N 23:36:35 32° NNW 23:36:35 32° NNW
Cosmos 1953 4.2 23:37:21 10° NNE 23:40:08 25° ENE 23:40:08 25° ENE
CZ-2D R/B 3.7 23:37:07 10° NE 23:41:18 23° E 23:41:40 23° E
Cosmos 332 Rocket 4.4 23:43:46 50° ENE 23:43:46 50° ENE 23:47:42 10° NNE
Cosmos 2251 Rocket 3.6 23:38:02 10° NNW 23:42:54 74° NNE 23:42:54 74° NNE
Meteor 1-21 4.3 23:48:27 70° W 23:48:30 70° W 23:54:17 10° N
Cosmos 1455 Rocket 4.0 23:49:37 10° N 23:53:16 43° NE 23:53:16 43° NE
